NB99 CYTR-KBDL

Flight info

Callsign NB99
Flight time 0h 46m
Altitude 280
Route CYTR CYTR1 KSYR DCT ALB DCT CTR DCT KBDL
Aircraft HDJT/L-VGDW/C

Departure

Time 2026-05-04 02:12
Airport CFB Trenton (CYTR)

Arrival

Time 2026-05-04 02:59
Airport Bradley International Airport (KBDL)
Time Latitude Longitude Altitude Speed Heading
2026-05-04 01:54 44.11162 -77.53430 272 ft 0 kts 343°
2026-05-04 02:06 44.11164 -77.53430 263 ft 2 kts 346°
2026-05-04 02:06 44.11206 -77.53414 272 ft 11 kts
2026-05-04 02:06 44.11292 -77.53438 272 ft 15 kts 316°
2026-05-04 02:06 44.11355 -77.53457 272 ft 12 kts 49°
2026-05-04 02:07 44.11424 -77.53338 273 ft 19 kts 51°
2026-05-04 02:07 44.11522 -77.53168 274 ft 26 kts 51°
2026-05-04 02:07 44.11650 -77.52953 274 ft 32 kts 49°
2026-05-04 02:07 44.11788 -77.52723 276 ft 26 kts 51°
2026-05-04 02:08 44.11897 -77.52537 277 ft 24 kts 51°
2026-05-04 02:08 44.11963 -77.52423 277 ft 14 kts 51°
2026-05-04 02:08 44.12023 -77.52321 278 ft 13 kts 50°
2026-05-04 02:08 44.12079 -77.52227 278 ft 12 kts 50°
2026-05-04 02:09 44.12132 -77.52138 278 ft 12 kts 50°
2026-05-04 02:09 44.12187 -77.52046 279 ft 15 kts 50°
2026-05-04 02:09 44.12266 -77.51912 279 ft 21 kts 50°
2026-05-04 02:09 44.12359 -77.51757 280 ft 18 kts 50°
2026-05-04 02:10 44.12409 -77.51672 281 ft 3 kts 50°
2026-05-04 02:10 44.12413 -77.51666 281 ft 0 kts 50°
2026-05-04 02:11 44.12440 -77.51632 281 ft 15 kts 31°
2026-05-04 02:11 44.12536 -77.51621 281 ft 12 kts 334°
2026-05-04 02:11 44.12559 -77.51707 280 ft 10 kts 237°
2026-05-04 02:12 44.12425 -77.51938 277 ft 74 kts 230°
2026-05-04 02:12 44.11935 -77.52759 458 ft 128 kts 229°
2026-05-04 02:12 44.11286 -77.53846 620 ft 167 kts 230°
2026-05-04 02:12 44.10545 -77.55130 1160 ft 164 kts 232°
2026-05-04 02:13 44.09840 -77.56252 2252 ft 148 kts 231°
2026-05-04 02:13 44.09076 -77.57355 2686 ft 174 kts 231°
2026-05-04 02:13 44.08210 -77.58574 3455 ft 176 kts 231°
2026-05-04 02:13 44.07326 -77.59799 4129 ft 189 kts 232°
2026-05-04 02:14 44.06327 -77.61105 4739 ft 202 kts 226°
2026-05-04 02:14 44.05075 -77.62147 5091 ft 226 kts 209°
2026-05-04 02:14 44.03384 -77.62449 5363 ft 266 kts 183°
2026-05-04 02:14 44.01544 -77.61558 5690 ft 296 kts 154°
2026-05-04 02:15 44.00004 -77.59572 6045 ft 309 kts 135°
2026-05-04 02:15 43.98699 -77.57162 6413 ft 318 kts 130°
2026-05-04 02:15 43.97825 -77.55454 6724 ft 325 kts 130°
2026-05-04 02:15 43.96425 -77.52962 7219 ft 328 kts 134°
2026-05-04 02:16 43.94943 -77.50546 7864 ft 329 kts 135°
2026-05-04 02:16 43.93483 -77.48095 8542 ft 331 kts 133°
2026-05-04 02:16 43.92045 -77.45591 9229 ft 333 kts 132°
2026-05-04 02:16 43.90609 -77.43120 9900 ft 334 kts 133°
2026-05-04 02:17 43.89131 -77.40620 10543 ft 336 kts 133°
2026-05-04 02:17 43.87648 -77.38101 11202 ft 338 kts 132°
2026-05-04 02:17 43.86166 -77.35570 11898 ft 339 kts 132°
2026-05-04 02:17 43.84676 -77.33034 12608 ft 339 kts 132°
2026-05-04 02:18 43.83169 -77.30479 13006 ft 350 kts 132°
2026-05-04 02:18 43.81603 -77.27827 12920 ft 357 kts 132°
2026-05-04 02:18 43.80042 -77.25170 12884 ft 356 kts 132°
2026-05-04 02:18 43.78475 -77.22513 12893 ft 356 kts 131°
2026-05-04 02:19 43.76906 -77.19862 12886 ft 357 kts 131°
2026-05-04 02:19 43.75337 -77.17208 12885 ft 357 kts 131°
2026-05-04 02:19 43.73765 -77.14550 12887 ft 357 kts 131°
2026-05-04 02:19 43.72193 -77.11897 12889 ft 357 kts 131°
2026-05-04 02:20 43.70613 -77.09232 13383 ft 357 kts 131°
2026-05-04 02:20 43.69036 -77.06573 13979 ft 359 kts 131°
2026-05-04 02:20 43.67447 -77.03903 14496 ft 361 kts 131°
2026-05-04 02:20 43.65858 -77.01228 15141 ft 359 kts 131°
2026-05-04 02:21 43.64272 -76.98561 15751 ft 360 kts 131°
2026-05-04 02:21 43.62682 -76.95893 16373 ft 360 kts 131°
2026-05-04 02:21 43.61089 -76.93222 17014 ft 361 kts 131°
2026-05-04 02:21 43.59492 -76.90546 17663 ft 361 kts 132°
2026-05-04 02:22 43.57895 -76.87871 18313 ft 361 kts 132°
2026-05-04 02:22 43.56291 -76.85190 18887 ft 362 kts 132°
2026-05-04 02:22 43.54693 -76.82518 19556 ft 361 kts 132°
2026-05-04 02:22 43.53093 -76.79847 20237 ft 361 kts 132°
2026-05-04 02:23 43.51490 -76.77177 20931 ft 362 kts 132°
2026-05-04 02:23 43.49880 -76.74500 21594 ft 364 kts 132°
2026-05-04 02:23 43.48253 -76.71805 22201 ft 368 kts 132°
2026-05-04 02:23 43.46604 -76.69080 22751 ft 373 kts 132°
2026-05-04 02:24 43.44930 -76.66323 23263 ft 378 kts 132°
2026-05-04 02:24 43.43228 -76.63526 23710 ft 383 kts 132°
2026-05-04 02:24 43.41508 -76.60706 24146 ft 386 kts 132°
2026-05-04 02:24 43.39774 -76.57870 24613 ft 388 kts 132°
2026-05-04 02:25 43.38028 -76.55028 25095 ft 389 kts 132°
2026-05-04 02:25 43.36276 -76.52187 25571 ft 390 kts 132°
2026-05-04 02:25 43.34511 -76.49339 26019 ft 392 kts 132°
2026-05-04 02:25 43.32733 -76.46476 26402 ft 395 kts 132°
2026-05-04 02:26 43.30962 -76.43629 26731 ft 399 kts 132°
2026-05-04 02:26 43.29150 -76.40722 27045 ft 403 kts 133°
2026-05-04 02:26 43.27319 -76.37790 27345 ft 406 kts 133°
2026-05-04 02:26 43.25471 -76.34838 27659 ft 408 kts 133°
2026-05-04 02:27 43.23617 -76.31881 27982 ft 410 kts 133°
2026-05-04 02:27 43.21757 -76.28915 28305 ft 411 kts 133°
2026-05-04 02:27 43.19892 -76.25942 28620 ft 412 kts 133°
2026-05-04 02:27 43.18021 -76.22960 28892 ft 414 kts 132°
2026-05-04 02:28 43.16141 -76.19962 29141 ft 416 kts 132°
2026-05-04 02:28 43.14317 -76.16870 29066 ft 421 kts 127°
2026-05-04 02:28 43.12657 -76.13506 28914 ft 431 kts 123°
2026-05-04 02:28 43.11238 -76.09879 28911 ft 436 kts 112°
2026-05-04 02:29 43.10289 -76.05920 28914 ft 439 kts 101°
2026-05-04 02:29 43.09737 -76.01805 28912 ft 441 kts 97°
2026-05-04 02:29 43.08646 -75.93507 28881 ft 446 kts 101°
2026-05-04 02:30 43.07308 -75.85191 28895 ft 449 kts 99°
2026-05-04 02:30 43.06114 -75.76789 28908 ft 451 kts 100°
2026-05-04 02:31 43.04808 -75.68404 28917 ft 450 kts 100°
2026-05-04 02:31 43.03565 -75.60026 28924 ft 450 kts 100°
2026-05-04 02:32 43.02431 -75.52672 28923 ft 450 kts 100°
2026-05-04 02:32 43.01158 -75.44300 28917 ft 449 kts 100°
2026-05-04 02:33 42.99871 -75.35951 28923 ft 449 kts 101°
2026-05-04 02:33 42.98589 -75.27642 28922 ft 450 kts 101°
2026-05-04 02:34 42.97288 -75.19276 28923 ft 450 kts 101°
2026-05-04 02:34 42.95984 -75.10919 28923 ft 450 kts 101°
2026-05-04 02:35 42.94673 -75.02569 28930 ft 450 kts 101°
2026-05-04 02:35 42.93361 -74.94249 28929 ft 443 kts 101°
2026-05-04 02:36 42.92086 -74.86215 30345 ft 408 kts 101°
2026-05-04 02:36 42.91492 -74.82495 30483 ft 409 kts 101°
2026-05-04 02:36 42.90905 -74.78824 31660 ft 371 kts 102°
2026-05-04 02:37 42.90379 -74.75502 32218 ft 354 kts 102°
2026-05-04 02:37 42.89837 -74.72093 31418 ft 384 kts 102°
2026-05-04 02:37 42.89245 -74.68402 30589 ft 401 kts 101°
2026-05-04 02:37 42.88650 -74.64722 29147 ft 390 kts 101°
2026-05-04 02:38 42.88077 -74.61174 27479 ft 377 kts 101°
2026-05-04 02:38 42.87518 -74.57701 25977 ft 382 kts 101°
2026-05-04 02:38 42.86940 -74.54101 25078 ft 394 kts 101°
2026-05-04 02:38 42.86344 -74.50440 24373 ft 395 kts 101°
2026-05-04 02:39 42.85753 -74.46823 23795 ft 385 kts 101°
2026-05-04 02:39 42.85179 -74.43294 23331 ft 378 kts 101°
2026-05-04 02:39 42.84613 -74.39813 22930 ft 374 kts 101°
2026-05-04 02:39 42.84049 -74.36361 22160 ft 372 kts 101°
2026-05-04 02:40 42.83509 -74.33082 20888 ft 344 kts 101°
2026-05-04 02:40 42.82972 -74.29791 19955 ft 367 kts 101°
2026-05-04 02:40 42.82410 -74.26351 19928 ft 374 kts 101°
2026-05-04 02:40 42.81839 -74.22906 19930 ft 372 kts 101°
2026-05-04 02:41 42.81269 -74.19469 19920 ft 372 kts 101°
2026-05-04 02:41 42.80700 -74.16027 19924 ft 372 kts 101°
2026-05-04 02:41 42.80138 -74.12628 19921 ft 361 kts 101°
2026-05-04 02:41 42.79587 -74.09314 19920 ft 359 kts 101°
2026-05-04 02:42 42.79036 -74.05997 19913 ft 360 kts 101°
2026-05-04 02:42 42.78483 -74.02676 19913 ft 359 kts 101°
2026-05-04 02:42 42.77929 -73.99363 19919 ft 359 kts 101°
2026-05-04 02:42 42.77373 -73.96040 19919 ft 359 kts 101°
2026-05-04 02:43 42.76818 -73.92731 19861 ft 356 kts 101°
2026-05-04 02:43 42.76267 -73.89453 19214 ft 356 kts 101°
2026-05-04 02:43 42.75723 -73.86219 18432 ft 336 kts 101°
2026-05-04 02:43 42.75207 -73.83172 16935 ft 337 kts 101°
2026-05-04 02:44 42.74440 -73.80121 16129 ft 342 kts 116°
2026-05-04 02:44 42.73201 -73.77396 15424 ft 337 kts 127°
2026-05-04 02:44 42.71825 -73.74828 14726 ft 334 kts 127°
2026-05-04 02:44 42.70480 -73.72275 14059 ft 330 kts 126°
2026-05-04 02:45 42.69152 -73.69741 13351 ft 327 kts 127°
2026-05-04 02:45 42.67829 -73.67239 12617 ft 325 kts 127°
2026-05-04 02:45 42.66512 -73.64757 11909 ft 323 kts 127°
2026-05-04 02:45 42.65202 -73.62282 11148 ft 322 kts 127°
2026-05-04 02:46 42.63913 -73.59847 10453 ft 321 kts 128°
2026-05-04 02:46 42.62612 -73.57393 9786 ft 319 kts 128°
2026-05-04 02:46 42.61320 -73.54956 9112 ft 316 kts 128°
2026-05-04 02:46 42.60044 -73.52557 8469 ft 311 kts 128°
2026-05-04 02:47 42.58791 -73.50199 8308 ft 307 kts 129°
2026-05-04 02:47 42.57375 -73.48049 8311 ft 305 kts 142°
2026-05-04 02:47 42.55742 -73.46232 8304 ft 302 kts 149°
2026-05-04 02:47 42.54057 -73.44516 8305 ft 304 kts 145°
2026-05-04 02:48 42.52504 -73.42551 8308 ft 307 kts 138°
2026-05-04 02:48 42.51005 -73.40501 8309 ft 305 kts 140°
2026-05-04 02:48 42.49437 -73.38570 8299 ft 304 kts 143°
2026-05-04 02:48 42.47849 -73.36676 8310 ft 305 kts 143°
2026-05-04 02:49 42.46261 -73.34771 8308 ft 305 kts 143°
2026-05-04 02:49 42.44681 -73.32853 8296 ft 305 kts 142°
2026-05-04 02:49 42.43108 -73.30930 8310 ft 305 kts 141°
2026-05-04 02:49 42.41553 -73.28952 8315 ft 311 kts 141°
2026-05-04 02:50 42.39944 -73.26950 8303 ft 314 kts 142°
2026-05-04 02:50 42.38317 -73.24979 8300 ft 315 kts 142°
2026-05-04 02:50 42.36710 -73.22967 8300 ft 315 kts 139°
2026-05-04 02:50 42.35108 -73.20952 8300 ft 314 kts 143°
2026-05-04 02:51 42.33441 -73.19054 8303 ft 314 kts 144°
2026-05-04 02:51 42.31812 -73.17096 8304 ft 314 kts 141°
2026-05-04 02:51 42.30216 -73.15077 8309 ft 314 kts 141°
2026-05-04 02:51 42.28604 -73.13082 8310 ft 314 kts 142°
2026-05-04 02:52 42.26978 -73.11117 8302 ft 313 kts 142°
2026-05-04 02:52 42.25358 -73.09151 8305 ft 314 kts 142°
2026-05-04 02:52 42.23740 -73.07172 8231 ft 314 kts 142°
2026-05-04 02:52 42.22134 -73.05209 7794 ft 310 kts 142°
2026-05-04 02:53 42.20535 -73.03263 7111 ft 308 kts 142°
2026-05-04 02:53 42.18960 -73.01349 6498 ft 302 kts 142°
2026-05-04 02:53 42.17436 -72.99494 5844 ft 297 kts 142°
2026-05-04 02:53 42.15896 -72.97621 5206 ft 291 kts 142°
2026-05-04 02:54 42.14487 -72.95904 4721 ft 256 kts 142°
2026-05-04 02:54 42.13117 -72.94260 3924 ft 268 kts 141°
2026-05-04 02:54 42.11793 -72.92654 3916 ft 245 kts 141°
2026-05-04 02:54 42.10569 -72.91155 3919 ft 231 kts 141°
2026-05-04 02:55 42.08198 -72.88242 3914 ft 231 kts 141°
2026-05-04 02:55 42.07005 -72.86789 3920 ft 231 kts 140°
2026-05-04 02:55 42.05880 -72.85292 3573 ft 226 kts 137°
2026-05-04 02:56 42.04776 -72.83794 2867 ft 224 kts 136°
2026-05-04 02:56 42.03702 -72.82316 2437 ft 217 kts 136°
2026-05-04 02:56 42.02643 -72.80856 2429 ft 220 kts 136°
2026-05-04 02:56 42.01585 -72.79401 2285 ft 212 kts 136°
2026-05-04 02:57 42.00589 -72.78032 1930 ft 197 kts 136°
2026-05-04 02:57 41.99652 -72.76736 1341 ft 196 kts 133°
2026-05-04 02:57 41.98738 -72.75422 1145 ft 186 kts 137°
2026-05-04 02:57 41.97823 -72.74254 1155 ft 174 kts 137°
2026-05-04 02:58 41.96968 -72.73125 912 ft 172 kts 136°
2026-05-04 02:58 41.96119 -72.72008 665 ft 170 kts 136°
2026-05-04 02:58 41.95318 -72.70874 531 ft 163 kts 132°
2026-05-04 02:58 41.94567 -72.69771 361 ft 153 kts 133°
2026-05-04 02:59 41.93885 -72.68835 185 ft 122 kts 135°
2026-05-04 02:59 41.93454 -72.68251 170 ft 53 kts 135°
2026-05-04 02:59 41.93235 -72.67964 173 ft 27 kts 155°
2026-05-04 02:59 41.93171 -72.68068 174 ft 20 kts 294°
2026-05-04 03:00 41.93284 -72.68249 173 ft 21 kts 319°
2026-05-04 03:00 41.93310 -72.68377 174 ft 19 kts 225°
2026-05-04 03:00 41.93229 -72.68421 176 ft 5 kts 185°
2026-05-04 03:00 41.95769 -72.71532 634 ft 166 kts 134°
2026-05-04 03:01 41.95074 -72.70513 454 ft 162 kts 132°
2026-05-04 03:01 41.94664 -72.69912 385 ft 156 kts 133°
2026-05-04 03:01 41.95826 -72.71608 645 ft 160 kts 133°
2026-05-04 03:01 41.95811 -72.71586 643 ft 160 kts 133°
2026-05-04 03:02 41.95108 -72.70620 429 ft 131 kts 137°
2026-05-04 03:02 41.95374 -72.70956 544 ft 163 kts 133°
2026-05-04 03:02 41.95837 -72.71628 641 ft 166 kts 134°
2026-05-04 03:02 41.95203 -72.70685 494 ft 154 kts 131°
2026-05-04 03:03 41.94496 -72.69657 315 ft 138 kts 139°
2026-05-04 03:03 41.93914 -72.68900 177 ft 73 kts 139°
2026-05-04 03:03 41.93842 -72.68795 177 ft 0 kts 136°